{"data":{"norad_id":61582,"intl_designator":"2024-187J","name":"STARLINK-11373 [DTC]","alt_names":[],"object_type":"PAYLOAD","status":"ACTIVE","operator":null,"country":"US","launch_date":"2024-10-18","launch_site_code":"AFETR","launch_vehicle":null,"mission":null,"orbit_class":"UNKNOWN","rcs_meters":null,"size_class":null,"mass_kg":null,"dimensions":null,"purposes":["comms"],"wikipedia_slug":null,"has_3d_model":false,"image_url":null,"decayed_at":null,"tle_current":{"epoch":"2026-09-21T09:26:20.205024Z","epoch_age_seconds":114953,"freshness":"FRESH","line1":"1 61582U 24187J   26264.39328941 -.00001470  00000+0 -72784-5 0  9999","line2":"2 61582  53.1596  51.8076 0001004  78.6006 281.5125 15.69709919111487","mean_motion":15.69709919,"eccentricity":0.0001004,"inclination_deg":53.1596,"raan_deg":51.8076,"arg_perigee_deg":78.6006,"mean_anomaly_deg":281.5125,"bstar":-7.2784e-6,"rev_number":11148,"period_min":91.736694950451,"perigee_km":359.05050066697,"apogee_km":360.4034637546,"semimajor_km":6737.8639822108,"source":"CELESTRAK","updated_at":"2026-09-22T09:00:49.391696Z"}}}